Hlavní strana
METAR-TAF:

METAR-TAF

Letiště :

Macon County Airport

Franklin, Severní Karolína, Spojené státy americké

zeměpisná šířka: 35-13N, zeměpisná délka: 083-25W, výška: 616 m

Aktuální stav počasí

Zpráva byla vytvořena před 24 minutami, v 00:15 UTC
Bezvětří
Teplota 9°C
Vlhkost vzduchu 66%
Tlak 1026 hPa
Viditelnost: 16.1 km
Zataženo ve výšce 5500 ft

METAR: K1A5 080015Z AUTO 00000KT 10SM OVC055 09/03 A3031 RMK AO2 T00900031

Čas: 19:39 (00:39 UTC)


TAF: chybějící

Stav a předpovědi počasí z více než 4 000 letišť (zprávy METAR a TAF).

Červené a žluté tečky na mapě představují dostupné meteorologické stanice.

Když kurzor umístíte na tečku, zobrazí se název stanice.

Pak kliknutím zobrazíte stav a předpověď počasí.

Chcete-li změnit mapu, kliknutím na zelené tlačítko se znaménkem +mapu přiblížíte, kliknutím na zelené tlačítko se znaménkem – mapu oddálíte a kliknutím na zelené šipky přejdete na sousední mapy.


METAR-TAF: